THORAD DELTA 1 DEB, 42592

Orbit data source: Space-Track

THORAD DELTA 1 DEB, 42592 is space debris in SSO originally from a launch on Fri, 15 Nov 1974 UTC launched from the Air Force Western Test Range (AFWTR). Debris objects in space refer to the collection of defunct objects orbiting the Earth. Examples of debris include non-operational satellites, rocket bodies, and fragments generated from explosions, collisions, or faulty payload assembly.

Loading next visibility...
Identifier
42592, 1974-089CW
Orbit
SSO
Country
Flag of USUS
Related business
Manufacturer
Unknown
Mission
Spacecraft
Bus & Motor
Unknown
Mass
Unknown
Launch date (UTC)
1974-11-15 (51 years ago)
Launch vehicle
Unknown
Launch site
Air Force Western Test Range (AFWTR)
Object type
Payload
Rocket body
Debris
Shape & HBR
Unknown shape, 0.1 m
Radar Cross Section
Small (<0.1 m²)

Expand to show TLE details & history
Last TLE update: 3 months ago

TLE from 3 months ago
0 THORAD DELTA 1 DEB
1 42592U 74089CW  25307.58419377 -.00000005  00000-0  25956-3 0  9997
2 42592 101.8373 255.3015 0033093 313.0370  46.7930 12.50288916504542
Epoch: 2025-11-03T14:01Z
TLE epoch observation values (Epoch: 2025-11-03T14:01:14.341Z)
Latitude
Longitude
1.90827°
Altitude
1,448.133 km
Speed
7.146 km/s
True Right ascension
17h 01m 12s
True Declination
0° 00' 00"
Sunlit
Object was in daylight at epoch
Visualization orbit readout
Latitude
Unknown
Longitude
Unknown
Altitude
Unknown
Speed
Unknown
Apparent Right ascension
Unknown
Apparent Declination
Unknown
Sunlit
N/A
Visualization observer readout
Local Sidereal Time
21:25:12
Azimuth
Unknown
Elevation
Unknown
Doppler factor
Unknown
Orbital elements
Apogee altitude
1,486.78 km
Perigee altitude
1,434.897 km
Semi-major axis
7,838.975 km
Eccentricity
0.00331
Inclination
101.8373°
RAAN
255.3015°
Arg. of periapsis
313.037°
True anomaly
47.07019°
Mean anomaly
46.793°
Eccentric anomaly
46.93152°
Mean motion
3.12719 °/min
Orbital period
115.12 mins
BSTAR
0.00025956
Loading maneuver chart data...
Computing Atmospheric mass density...

Documentation

Showing up to 5 results
|